Weather History for Worthington, MN

Change the Weather History Date:

Sunday, September 29, 2013

  Actual Average Record
Temperature  
Mean Temperature 62 °F -  
Max Temperature 78 °F 63 °F 82 °F (1983)
Min Temperature 46 °F 42 °F 29 °F (1992)
Degree Days  
Heating Degree Days 3    
Growing Degree Days 12 (Base 50)    
Moisture  
Dew Point 38 °F    
Average Humidity 44    
Maximum Humidity 66    
Minimum Humidity 23    
Precipitation  
Precipitation 0.00 in - - ()
Sea Level Pressure  
Sea Level Pressure 29.90 in    
Wind  
Wind Speed 12 mph (SSW)    
Max Wind Speed 21 mph    
Max Gust Speed 28 mph    
Visibility 10 miles    
Events      
Averages and records for this station are not official NWS values.
T = Trace of Precipitation, MM = Missing Value Source: NWS Daily Summary

Daily Weather History Graph

Daily Weather History Graph

Search for Another Location

Airport:

Trip Planner

Search our weather history database for the weather conditions in past years. The results will help you decide how hot, cold, wet, or windy it might be!

Date:

Astronomy

Sep. 29, 2013 Rise Set
Actual Time 7:17 AM CDT 7:06 PM CDT
Civil Twilight 6:49 AM CDT 7:34 PM CDT
Nautical Twilight 6:15 AM CDT 8:08 PM CDT
Astronomical Twilight 5:42 AM CDT 8:41 PM CDT
Moon 1:51 AM CDT (9/29) 4:10 PM CDT (9/29)
Length of Visible Light 12h 45m
Length of Day
11h 48m
Waning Crescent, 27% of the Moon is Illuminated
Sep 29
Waning Crescent
Oct 4
New
Oct 11
First Quarter
Oct 18
Full
Oct 26
Last Quarter

Hourly Weather History & Observations

Time (CDT) Temp. Windchill Dew Point Humidity Pressure Visibility Wind Dir Wind Speed Gust Speed Precip Events Conditions
12:15 AM 48.2 °F - 35.6 °F 62% 29.99 in 10.0 mi SSW 9.2 mph - N/A   Clear
12:35 AM 48.2 °F - 35.6 °F 62% 29.99 in 10.0 mi SSW 8.1 mph - N/A   Clear
12:55 AM 48.2 °F - 35.6 °F 62% 29.99 in 10.0 mi SSW 8.1 mph - N/A   Clear
1:15 AM 50.0 °F - 35.6 °F 58% 29.99 in 10.0 mi SSW 9.2 mph - N/A   Clear
1:35 AM 50.0 °F - 35.6 °F 58% 29.99 in 10.0 mi SSW 9.2 mph - N/A   Clear
1:55 AM 50.0 °F - 35.6 °F 58% 29.99 in 10.0 mi SSW 8.1 mph - N/A   Clear
2:15 AM 50.0 °F - 35.6 °F 58% 29.99 in 10.0 mi SSW 9.2 mph - N/A   Clear
2:35 AM 50.0 °F - 35.6 °F 58% 29.99 in 10.0 mi SSW 10.4 mph - N/A   Clear
2:55 AM 50.0 °F - 35.6 °F 58% 29.99 in 10.0 mi SSW 10.4 mph - N/A   Clear
3:15 AM 51.8 °F - 35.6 °F 54% 29.99 in 10.0 mi SSW 12.7 mph - N/A   Clear
3:35 AM 50.0 °F - 35.6 °F 58% 29.99 in 10.0 mi SSW 11.5 mph - N/A   Clear
3:55 AM 50.0 °F - 35.6 °F 58% 29.98 in 10.0 mi SW 10.4 mph - N/A   Clear
4:15 AM 50.0 °F - 37.4 °F 62% 29.98 in 10.0 mi SW 10.4 mph - N/A   Clear
4:35 AM 50.0 °F - 35.6 °F 58% 29.98 in 10.0 mi SW 10.4 mph - N/A   Clear
4:55 AM 48.2 °F - 35.6 °F 62% 29.98 in 10.0 mi SSW 10.4 mph - N/A   Clear
5:15 AM 48.2 °F - 35.6 °F 62% 29.98 in 10.0 mi SSW 11.5 mph - N/A   Clear
5:35 AM 50.0 °F - 35.6 °F 58% 29.97 in 10.0 mi SSW 11.5 mph - N/A   Clear
5:55 AM 48.2 °F - 35.6 °F 62% 29.98 in 10.0 mi SSW 9.2 mph - N/A   Clear
6:15 AM 48.2 °F - 35.6 °F 62% 29.98 in 10.0 mi SSW 10.4 mph - N/A   Clear
6:35 AM 48.2 °F - 35.6 °F 62% 29.98 in 10.0 mi SSW 10.4 mph - N/A   Clear
6:55 AM 46.4 °F 41.9 °F 35.6 °F 66% 29.98 in 10.0 mi SSW 9.2 mph - N/A   Clear
7:15 AM 48.2 °F - 35.6 °F 62% 29.97 in 10.0 mi SSW 10.4 mph - N/A   Clear
7:35 AM 48.2 °F - 35.6 °F 62% 29.97 in 10.0 mi SSW 9.2 mph - N/A   Clear
7:55 AM 48.2 °F - 35.6 °F 62% 29.97 in 10.0 mi SSW 9.2 mph - N/A   Clear
8:15 AM 50.0 °F - 35.6 °F 58% 29.97 in 10.0 mi SSW 10.4 mph - N/A   Clear
8:35 AM 51.8 °F - 37.4 °F 58% 29.96 in 10.0 mi South 10.4 mph - N/A   Clear
8:55 AM 53.6 °F - 37.4 °F 54% 29.96 in 10.0 mi South 10.4 mph - N/A   Clear
9:15 AM 55.4 °F - 37.4 °F 51% 29.95 in 10.0 mi South 12.7 mph - N/A   Clear
9:35 AM 57.2 °F - 37.4 °F 48% 29.95 in 10.0 mi South 10.4 mph - N/A   Clear
9:55 AM 60.8 °F - 39.2 °F 45% 29.95 in 10.0 mi South 13.8 mph 20.7 mph N/A   Clear
10:15 AM 62.6 °F - 37.4 °F 39% 29.95 in 10.0 mi SSW 13.8 mph - N/A   Clear
10:35 AM 62.6 °F - 37.4 °F 39% 29.95 in 10.0 mi SSW 13.8 mph - N/A   Clear
10:55 AM 62.6 °F - 39.2 °F 42% 29.94 in 10.0 mi SSW 15.0 mph 18.4 mph N/A   Clear
11:15 AM 64.4 °F - 39.2 °F 40% 29.94 in 10.0 mi SSW 15.0 mph 18.4 mph N/A   Clear
11:35 AM 64.4 °F - 39.2 °F 40% 29.93 in 10.0 mi SSW 16.1 mph 20.7 mph N/A   Clear
11:55 AM 66.2 °F - 39.2 °F 37% 29.93 in 10.0 mi SSW 12.7 mph - N/A   Clear
12:15 PM 68.0 °F - 39.2 °F 35% 29.92 in 10.0 mi SSW 13.8 mph 18.4 mph N/A   Clear
12:35 PM 69.8 °F - 39.2 °F 33% 29.91 in 10.0 mi South 13.8 mph 19.6 mph N/A   Clear
12:55 PM 71.6 °F - 41.0 °F 33% 29.91 in 10.0 mi SSW 12.7 mph - N/A   Clear
1:15 PM 73.4 °F - 41.0 °F 31% 29.90 in 10.0 mi South 15.0 mph 18.4 mph N/A   Clear
1:35 PM 73.4 °F - 41.0 °F 31% 29.88 in 10.0 mi SSW 13.8 mph 19.6 mph N/A   Clear
1:55 PM 75.2 °F - 39.2 °F 27% 29.87 in 10.0 mi SSW 13.8 mph 19.6 mph N/A   Clear
2:15 PM 75.2 °F - 41.0 °F 29% 29.87 in 10.0 mi South 17.3 mph 20.7 mph N/A   Clear
2:35 PM 75.2 °F - 41.0 °F 29% 29.86 in 10.0 mi SSW 16.1 mph 21.9 mph N/A   Clear
2:55 PM 75.2 °F - 41.0 °F 29% 29.85 in 10.0 mi SSW 12.7 mph 23.0 mph N/A   Clear
3:15 PM 78.8 °F - 41.0 °F 26% 29.84 in 10.0 mi South 13.8 mph 20.7 mph N/A   Clear
3:35 PM 78.8 °F - 39.2 °F 24% 29.83 in 10.0 mi SSW 12.7 mph 21.9 mph N/A   Clear
3:55 PM 78.8 °F - 37.4 °F 23% 29.83 in 10.0 mi SSW 18.4 mph 23.0 mph N/A   Clear
4:15 PM 78.8 °F - 39.2 °F 24% 29.82 in 10.0 mi SSW 18.4 mph 25.3 mph N/A   Clear
4:35 PM 78.8 °F - 39.2 °F 24% 29.81 in 10.0 mi SSW 18.4 mph 27.6 mph N/A   Clear
4:55 PM 78.8 °F - 39.2 °F 24% 29.81 in 10.0 mi South 19.6 mph 27.6 mph N/A   Clear
5:15 PM 78.8 °F - 39.2 °F 24% 29.80 in 10.0 mi SSW 17.3 mph 23.0 mph N/A   Clear
5:35 PM 78.8 °F - 39.2 °F 24% 29.80 in 10.0 mi South 18.4 mph 23.0 mph N/A   Clear
5:55 PM 77.0 °F - 39.2 °F 26% 29.80 in 10.0 mi South 16.1 mph 25.3 mph N/A   Clear
6:15 PM 75.2 °F - 39.2 °F 27% 29.80 in 10.0 mi South 16.1 mph 23.0 mph N/A   Clear
6:35 PM 73.4 °F - 39.2 °F 29% 29.80 in 10.0 mi South 17.3 mph 24.2 mph N/A   Clear
6:55 PM 71.6 °F - 39.2 °F 31% 29.80 in 10.0 mi South 15.0 mph 24.2 mph N/A   Clear
7:15 PM 71.6 °F - 39.2 °F 31% 29.80 in 10.0 mi South 17.3 mph 21.9 mph N/A   Clear
7:35 PM 69.8 °F - 39.2 °F 33% 29.80 in 10.0 mi South 15.0 mph 18.4 mph N/A   Clear
7:55 PM 66.2 °F - 39.2 °F 37% 29.81 in 10.0 mi South 13.8 mph - N/A   Clear
8:15 PM 66.2 °F - 39.2 °F 37% 29.81 in 10.0 mi South 16.1 mph 23.0 mph N/A   Clear
8:35 PM 66.2 °F - 39.2 °F 37% 29.81 in 10.0 mi South 15.0 mph - N/A   Clear
8:55 PM 64.4 °F - 41.0 °F 42% 29.81 in 10.0 mi South 15.0 mph 21.9 mph N/A   Clear
9:15 PM 64.4 °F - 41.0 °F 42% 29.81 in 10.0 mi South 12.7 mph - N/A   Clear
9:35 PM 62.6 °F - 41.0 °F 45% 29.81 in 10.0 mi South 13.8 mph 19.6 mph N/A   Clear
9:55 PM 64.4 °F - 39.2 °F 40% 29.81 in 10.0 mi South 16.1 mph 21.9 mph N/A   Clear
10:15 PM 64.4 °F - 39.2 °F 40% 29.81 in 10.0 mi South 18.4 mph 25.3 mph N/A   Clear
10:35 PM 64.4 °F - 39.2 °F 40% 29.80 in 10.0 mi South 17.3 mph 26.5 mph N/A   Clear
10:55 PM 64.4 °F - 39.2 °F 40% 29.80 in 10.0 mi South 20.7 mph 27.6 mph N/A   Clear
11:15 PM 62.6 °F - 39.2 °F 42% 29.80 in 10.0 mi South 18.4 mph 26.5 mph N/A   Clear
11:35 PM 62.6 °F - 39.2 °F 42% 29.79 in 10.0 mi South 20.7 mph 27.6 mph N/A   Clear
11:55 PM 62.6 °F - 39.2 °F 42% 29.79 in 10.0 mi South 20.7 mph 25.3 mph N/A   Clear